Weather History for Andalusia, AL

Change the Weather History Date:

Friday, November 16, 2012

  Actual Average (KCEW) Record (KCEW)
Temperature  
Mean Temperature 55 °F -  
Max Temperature 64 °F 71 °F 84 °F (1993)
Min Temperature 44 °F 45 °F 29 °F (1975)
Degree Days  
Heating Degree Days 10    
Growing Degree Days 5 (Base 50)    
Moisture  
Dew Point 44 °F    
Average Humidity 76    
Maximum Humidity 87    
Minimum Humidity 46    
Precipitation  
Precipitation 0.00 in - - ()
Sea Level Pressure  
Sea Level Pressure 30.25 in    
Wind  
Wind Speed 4 mph (ENE)    
Max Wind Speed 9 mph    
Max Gust Speed -    
Visibility 7 miles    
Events      
Averages and records for this station are not official NWS values.
T = Trace of Precipitation, MM = Missing Value Source: NWS Daily Summary

Daily Weather History Graph

Daily Weather History Graph

Search for Another Location

Airport:

Trip Planner

Search our weather history database for the weather conditions in past years. The results will help you decide how hot, cold, wet, or windy it might be!

Date:

Astronomy

Nov. 16, 2012 Rise Set
Actual Time 6:14 AM CST 4:46 PM CST
Civil Twilight 5:48 AM CST 5:12 PM CST
Nautical Twilight 5:19 AM CST 5:41 PM CST
Astronomical Twilight 4:50 AM CST 6:10 PM CST
Moon 9:05 AM CST (11/16) 7:47 PM CST (11/16)
Length of Visible Light 11h 23m
Length of Day
10h 32m
Waxing Crescent, 12% of the Moon is Illuminated
Nov 16
Waxing Crescent
Nov 20
First Quarter
Nov 28
Full
Dec 6
Last Quarter
Dec 13
New

Hourly Weather History & Observations

Time (CST) Temp. Dew Point Humidity Pressure Visibility Wind Dir Wind Speed Gust Speed Precip Events Conditions
12:22 AM 46.4 °F 41.0 °F 81% 30.24 in 7.0 mi Calm Calm - N/A   Mostly Cloudy
12:56 AM 46.9 °F 42.1 °F 83% 30.24 in 8.0 mi NNE 4.6 mph - N/A   Overcast
1:56 AM 48.0 °F 43.0 °F 83% 30.23 in 8.0 mi Calm Calm - N/A   Overcast
2:56 AM 48.9 °F 43.0 °F 80% 30.23 in 9.0 mi ENE 3.5 mph - N/A   Overcast
3:56 AM 48.9 °F 43.0 °F 80% 30.22 in 9.0 mi ENE 4.6 mph - N/A   Overcast
4:56 AM 48.9 °F 44.1 °F 83% 30.23 in 8.0 mi ENE 3.5 mph - N/A   Overcast
5:13 AM 48.2 °F 44.6 °F 87% 30.23 in 7.0 mi ENE 3.5 mph - N/A   Overcast
5:46 AM 48.2 °F 44.6 °F 87% 30.24 in 2.5 mi NE 4.6 mph - N/A   Haze
5:56 AM 48.9 °F 44.1 °F 83% 30.24 in 2.0 mi NE 4.6 mph - N/A   Haze
6:56 AM 48.9 °F 45.0 °F 86% 30.26 in 2.5 mi East 4.6 mph - N/A   Overcast
7:08 AM 48.2 °F 44.6 °F 87% 30.26 in 3.0 mi East 5.8 mph - N/A   Overcast
7:14 AM 48.2 °F 44.6 °F 87% 30.26 in 3.0 mi ESE 4.6 mph - N/A   Overcast
7:22 AM 48.2 °F 44.6 °F 87% 30.27 in 2.5 mi East 5.8 mph - N/A   Overcast
7:29 AM 50.0 °F 44.6 °F 82% 30.27 in 3.0 mi East 5.8 mph - N/A   Haze
7:53 AM 50.0 °F 44.6 °F 82% 30.28 in 2.5 mi East 3.5 mph - N/A   Haze
7:56 AM 50.0 °F 45.0 °F 83% 30.28 in 3.0 mi Calm Calm - N/A   Haze
8:04 AM 50.0 °F 44.6 °F 82% 30.28 in 4.0 mi ESE 4.6 mph - N/A   Haze
8:31 AM 50.0 °F 44.6 °F 82% 30.28 in 9.0 mi East 6.9 mph - N/A   Overcast
8:56 AM 50.0 °F 44.1 °F 80% 30.29 in 9.0 mi ESE 8.1 mph - N/A   Overcast
9:56 AM 51.1 °F 45.0 °F 80% 30.29 in 8.0 mi East 5.8 mph - N/A   Overcast
10:48 AM 53.6 °F 44.6 °F 72% 30.29 in 10.0 mi ENE 6.9 mph - N/A   Overcast
10:56 AM 53.1 °F 45.0 °F 74% 30.28 in 10.0 mi Variable 6.9 mph - N/A   Overcast
11:56 AM 54.0 °F 45.0 °F 72% 30.26 in 10.0 mi NNE 8.1 mph - N/A   Overcast
12:30 PM 55.4 °F 46.4 °F 72% 30.25 in 10.0 mi Variable 3.5 mph - N/A   Overcast
12:56 PM 59.0 °F 46.0 °F 62% 30.23 in 10.0 mi ESE 4.6 mph - N/A   Mostly Cloudy
1:24 PM 60.8 °F 46.4 °F 59% 30.23 in 10.0 mi ESE 6.9 mph - N/A   Scattered Clouds
1:56 PM 63.0 °F 45.0 °F 52% 30.21 in 10.0 mi East 5.8 mph - N/A   Partly Cloudy
2:56 PM 64.9 °F 44.1 °F 47% 30.20 in 10.0 mi NE 9.2 mph - N/A   Scattered Clouds
3:56 PM 64.0 °F 43.0 °F 46% 30.20 in 10.0 mi East 5.8 mph - N/A   Clear
4:56 PM 60.1 °F 44.1 °F 55% 30.21 in 10.0 mi ENE 3.5 mph - N/A   Clear
5:56 PM 53.1 °F 44.1 °F 71% 30.23 in 10.0 mi NE 3.5 mph - N/A   Clear
6:56 PM 52.0 °F 44.1 °F 74% 30.24 in 10.0 mi NE 3.5 mph - N/A   Clear
7:56 PM 50.0 °F 43.0 °F 77% 30.26 in 10.0 mi Calm Calm - N/A   Clear
8:56 PM 48.0 °F 43.0 °F 83% 30.26 in 10.0 mi Calm Calm - N/A   Clear
9:56 PM 46.9 °F 41.0 °F 80% 30.27 in 9.0 mi Calm Calm - N/A   Clear
10:56 PM 46.0 °F 41.0 °F 83% 30.28 in 9.0 mi Calm Calm - N/A   Clear
11:56 PM 44.1 °F 39.9 °F 85% 30.27 in 6.0 mi Calm Calm - N/A   Clear